Regional Weather Roundup
Issued by NWS Sterling, VA

Home | Current Version | Previous Version | Text Only | Print | Product List | Glossary On
Versions: 1 2 3 4 5 6 7 8 9 10 11 12 13 14 15 16 17 18 19 20 21 22 23 24 25 26 27 28 29 30 31 32 33 34 35 36 37 38 39 40 41 42 43 44 45 46 47 48 49 50
403
ASUS41 KLWX 232211
RWRLWX

REGIONAL WEATHER ROUNDUP
NATIONAL WEATHER SERVICE BALTIMORE MD/WASHINGTON DC
500 PM EST TUE JAN 23 2018

Note: "FAIR" indicates few or no clouds below 12,000 feet
with no significant weather and/or obstructions to visibility.
 TC=TEMPERATURE CELSIUS

 * =Non NWS site. Station does not report precipitation (e.g. rain,
    snow, etc.), thunder, or fog.

DCZ001-MDZ009-015-VAZ040>042-051-053>054-232300-
WASHINGTON METRO

CITY           SKY/WX    TMP DP  RH WIND       PRES   REMARKS
WASHINGTON NAT FAIR      58  31  35 NW16G30   29.70R
DULLES         FAIR      53  32  44 W20G31    29.72R
ANDREWS AFB    FAIR      56  30  37 W22G35    29.68R
FT BELVOIR     FAIR      58  31  36 NW13G26   29.70R
QUANTICO       FAIR      61  33  35 NW14G31   29.71R
COLLEGE PARK*  FAIR      55  30  38 NW16G26   29.71R
LEESBURG*      FAIR      54  32  43 W29G35    29.74R
MANASSAS*      FAIR      56  30  37 W16G22    29.72R
GAITHERSBURG*  FAIR      51  30  44 NW18G29   29.72R

$$

MDZ006>007-011-014-232300-
BALTIMORE METRO

CITY           SKY/WX    TMP DP  RH WIND       PRES   REMARKS
BWI AIRPORT    FAIR      54  31  41 W23       29.69R
MD SCIENCE CTR   N/A     56  32  40 MISG      29.69R
MARTIN STATE   PTCLDY    55  36  47 W16G28    29.69R
ANNAPOLIS      FAIR      57  36  45 NW10G28   29.68R
FORT MEADE*    FAIR      52  32  46 NW17      29.72R

$$

MDZ012-015-019>023-232300-
MARYLAND EASTERN SHORE

CITY           SKY/WX    TMP DP  RH WIND       PRES   REMARKS
OCEAN CITY     MOCLDY    52  52 100 SW12      29.63R
SALISBURY      MOCLDY    61  54  77 NW22G28   29.65R
BAY BRIDGE AP* FAIR      52  36  54 NW10G18   29.69R
CAMBRIDGE*     CLEAR     55  50  82 NW10      29.67R
EASTON*        PTCLDY    55  48  76 N9        29.71R

$$

MDZ017>025-232300-
SOUTHERN MARYLAND

CITY           SKY/WX    TMP DP  RH WIND       PRES   REMARKS
PATUXENT RIVER FAIR      55  44  66 NW15      29.66R
ST INIGOES     FAIR      61  47  59 NW7       29.65R
LEONARDTOWN*   FAIR      57  43  58 NW7       29.70R

$$

MDZ003>005-232300-
NORTH CENTRAL MARYLAND

CITY           SKY/WX    TMP DP  RH WIND       PRES   REMARKS
FREDERICK*     PTCLDY    54  23  30 W17G26    29.76R
HAGERSTOWN APT MOCLDY    50  28  42 W16G25    29.73R
WESTMINSTER*   FAIR      52  30  43 W13G24    29.71R

$$

MDZ501>502-232300-
WESTERN MARYLAND

CITY           SKY/WX    TMP DP  RH WIND       PRES   REMARKS
OAKLAND*       CLOUDY    34  27  75 W16G30    29.74R WCI  23
CUMBERLAND*    FAIR      46  30  53 W13G23    29.80S

$$

VAZ025>031-232300-
SHENANDOAH VALLEY

CITY           SKY/WX    TMP DP  RH WIND       PRES   REMARKS
WINCHESTER*    MOCLDY    48  28  46 W15G26    29.77R
FRONT ROYAL*   FAIR      50  28  43 SW5       29.73R
LURAY*         FAIR      50  27  40 W13G22    29.76R
NEW MARKET*    FAIR      50  24  35 W9G21     29.76R
STAUNTON*      FAIR      49  26  41 W16       29.79R
WAYNESBORO*    FAIR      51  26  38 W12G18    29.76R

$$

WVZ021-048>050-054>055-232300-
EASTERN WEST VIRGINIA PANHANDLE

CITY           SKY/WX    TMP DP  RH WIND       PRES   REMARKS
MARTINSBURG    MOCLDY    50  27  40 W23G30    29.74R
PETERSBURG*    MOCLDY    47  28  46 W15G22    29.79R

$$

VAZ036>039-050-232300-
CENTRAL FOOTHILLS

CITY           SKY/WX    TMP DP  RH WIND       PRES   REMARKS
CHARLOTTESVILL FAIR      57  28  33 W10G22    29.75R
CULPEPER*      FAIR      58  26  29 W12G17    29.74R
ORANGE*        FAIR      55  30  38 W16       29.72R
GORDONSVILLE*  FAIR      57  29  34 W8        29.73R
WARRENTON*     FAIR      57  24  27 W16G23    29.71R

$$

VAZ055>057-232300-
NORTH AND CENTRAL PIEDMONT

CITY           SKY/WX    TMP DP  RH WIND       PRES   REMARKS
FREDERICKSBRG* FAIR      62  36  38 NW12G25   29.69R
STAFFORD*      FAIR      60  33  35 NW9G17    29.74R

$$

NCZ024-NYZ072-PAZ021-071-VAZ022-071-232300-
OTHER REGIONAL OBSERVATIONS

CITY           SKY/WX    TMP DP  RH WIND       PRES   REMARKS
NEW YORK CITY  CLOUDY    55  47  74 W10G22    29.61R
PHILADELPHIA   CLOUDY    55  39  54 NW17G23   29.66R
PITTSBURGH     CLOUDY    39  29  67 W14G29    29.77R WCI  31
ROANOKE        FAIR      54  26  34 NW20G25   29.82R
RICHMOND       FAIR      65  33  30 W13       29.68R
RALEIGH        FAIR      64  29  26 SW12      29.76R

$$

ANZ530>537-232300-
MARINE OBSERVATIONS

STATION/POSITION TIME  TEMP    WIND        PRES
                       AIR SEA DIR/SP/G
                 (UTC) (F)     (DEG/KT/KT) (MB)
THOMAS PT LIGHT  2200   56 35  310/ 17/ 20   N/A
BALT KEY BRIDGE  2148   52     310/ 19/ 21 1004.8R
COVE POINT       2148          340/ 13/ 14 1005.3R
LEWISETTA        2148   67 39  300/ 20/ 25 1003.9R
SOLOMONS ISLAND  2148   56 35  320/  9/ 14 1004.2R
PINEY POINT      2148           10/ 13/ 14   N/A

$$





USA.gov is the U.S. government's official web portal to all federal, state and local government web resources and services.